Helicity
-10 -13 -5 13 16 20 24 26 25 24 27 25 20 8 -2 -12 11 40 29 41 26 8 10 7 8 32 51 72 60 65 80 72 98 100 112 73 59 60 54 60 83 97 101 131 119
20 14 5 9 17 18 22 27 30 34 33 38 36 17 -4 -10 35 42 69 53 37 28 12 8 21 32 50 71 74 64 87 102 92 84 75 56 53 23 28 37 45 59 53 52 77
23 23 26 18 4 -14 2 17 30 42 47 47 38 29 11 5 44 78 82 55 48 45 42 36 37 42 40 55 87 98 93 93 58 55 59 39 48 13 22 -6 22 26 20 67 75
28 29 28 31 28 18 -7 -16 10 34 46 51 63 36 16 49 36 101 81 54 54 50 52 49 46 47 44 38 102 83 68 54 70 63 64 68 48 51 41 83 -9 -4 28 71 46
34 36 36 37 37 36 5 -17 -4 23 45 60 64 68 62 71 69 114 92 76 69 66 68 63 64 53 47 69 83 77 64 90 70 57 54 52 66 72 68 64 37 -4 1 31 37
36 39 40 38 35 36 17 -7 -5 28 54 63 78 84 93 68 95 107 108 90 75 77 82 71 80 72 63 89 79 118 88 43 44 65 87 102 56 102 77 32 23 15 -11 34 40
37 38 41 42 43 31 21 4 -2 21 43 61 97 103 110 70 99 112 112 87 88 89 92 95 99 75 107 78 92 88 45 35 59 101 87 106 89 127 19 50 32 8 14 32 34
25 32 40 39 38 33 24 19 9 27 54 79 110 100 67 109 101 119 118 109 99 100 107 109 109 84 104 83 94 77 64 56 109 68 123 123 134 43 23 43 18 9 15 34 53
22 28 32 32 32 30 26 20 41 84 86 112 112 89 61 88 106 96 104 106 111 106 109 123 99 98 98 72 68 87 71 48 55 128 100 141 127 104 15 33 143 30 -4 14 14
30 32 30 31 36 36 38 24 80 99 122 97 104 60 102 87 158 128 113 134 112 117 99 95 91 87 88 79 71 91 62 81 68 95 100 125 173 108 34 42 119 91 25 5 -6
28 27 29 36 37 41 46 56 74 67 100 129 107 176 207 216 193 101 99 115 112 97 85 106 82 81 16 70 57 67 67 67 48 43 100 88 97 50 3 29 62 69 52 9 -7
40 35 31 42 42 47 61 121 140 140 87 94 107 168 200 227 163 67 90 70 86 86 116 99 89 33 90 90 73 65 53 42 46 101 74 49 89 21 27 32 39 -27 -23 -12 -6
71 52 46 53 68 95 141 140 99 84 96 140 160 84 67 108 46 49 61 75 67 92 75 76 124 131 92 76 54 47 58 30 69 17 73 45 28 34 51 23 17 -31 -30 -23 5
83 66 41 29 66 107 130 121 94 66 130 126 45 58 69 77 78 75 56 75 65 59 86 62 115 75 74 63 66 39 72 55 47 24 57 32 49 19 25 10 33 19 -8 -14 -11
44 16 39 45 85 114 100 84 64 49 181 99 76 35 58 75 114 103 71 83 54 63 116 118 106 79 67 73 81 82 77 54 64 29 41 67 37 31 25 18 3 -1 2 -32 -29
41 25 26 47 58 74 59 61 72 148 176 185 154 154 72 74 113 120 79 86 96 101 97 40 105 98 93 78 65 71 36 57 64 52 41 102 54 30 23 28 19 7 -2 11 -50
13 -11 13 12 44 46 57 78 191 283 215 258 191 135 131 105 93 47 42 46 58 66 63 36 72 97 72 67 87 28 23 18 16 34 47 85 18 10 30 15 23 14 13 -41 -29
19 16 38 56 21 33 54 126 259 303 258 208 149 98 100 109 102 102 89 100 104 58 53 47 81 87 56 81 73 44 54 45 39 39 23 91 13 17 17 -14 2 22 35 -8 -40
11 44 72 93 43 37 85 195 297 292 231 187 101 109 133 126 135 102 93 122 131 140 105 90 59 104 57 62 71 66 44 82 62 59 48 33 24 0 0 -17 13 13 18 -12 -21
42 67 109 56 35 62 134 254 269 230 151 119 130 169 149 154 128 116 85 144 150 155 113 112 28 44 59 54 63 65 81 39 54 31 40 68 100 45 20 10 10 34 10 -9 10
44 65 102 32 31 116 234 251 205 161 142 166 145 123 125 120 85 60 129 141 174 160 103 116 70 42 44 32 30 59 76 74 89 95 69 50 106 32 -37 0 32 36 -19 -18 17
33 102 120 30 139 154 202 184 167 142 144 135 131 153 133 118 83 85 146 129 137 78 40 64 73 33 32 29 77 81 79 81 113 110 116 99 -8 19 87 139 35 -15 -38 25 10
50 69 62 42 215 179 129 135 129 155 146 163 174 162 145 112 97 116 121 113 180 121 116 70 81 30 -10 49 79 82 123 127 177 165 114 116 88 88 69 18 -26 -46 38 59 8
27 106 86 61 59 123 151 152 138 94 108 99 129 106 148 114 115 123 95 111 105 45 0 4 81 88 74 72 100 63 52 85 108 120 89 93 9 31 48 -23 -60 -43 18 63 30
32 86 65 136 126 107 92 119 122 140 101 99 77 118 73 47 50 65 84 59 39 59 128 159 97 114 84 62 68 55 60 67 80 93 127 41 58 36 26 -30 -39 5 7 62 64
16 33 44 65 50 69 89 113 96 84 60 104 93 88 76 62 70 56 44 32 16 50 99 110 106 123 69 52 51 38 59 68 86 90 101 93 75 71 114 47 57 54 50 47 89
11 32 28 69 77 71 90 82 75 72 68 48 65 62 47 65 71 63 56 62 83 48 36 105 102 92 79 238 162 61 73 59 56 60 180 153 230 336 189 76 79 96 61 18 85
Wind_Speed
58 52 31 7 8 6 5 5 5 4 4 3 4 6 13 43 22 34 40 39 39 42 43 41 44 43 39 39 37 35 42 48 45 48 49 43 47 35 38 53 64 70 79 81 80
57 58 59 50 6 5 9 9 8 8 7 7 9 11 17 27 35 30 31 32 35 39 43 48 48 46 43 41 37 37 43 43 37 42 46 44 41 37 43 56 75 80 83 83 78
59 60 60 60 62 50 22 15 18 20 24 25 23 24 29 35 39 28 27 30 33 36 39 41 43 45 45 42 38 38 42 42 36 37 36 37 34 28 33 29 82 82 80 80 79
62 62 63 63 62 62 62 46 33 28 31 32 35 35 35 32 44 28 26 28 32 34 38 41 43 47 46 47 39 42 32 32 37 37 32 32 26 25 23 37 83 84 83 82 86
64 64 65 65 66 65 64 57 44 38 38 36 36 38 36 34 29 23 25 28 31 33 38 41 45 47 49 45 44 35 41 37 30 29 23 22 21 20 22 29 65 82 83 84 88
66 66 67 67 67 68 66 61 51 40 37 36 35 37 36 35 30 22 24 27 29 33 37 39 43 43 41 43 42 45 42 33 31 28 22 27 22 20 14 25 23 63 76 77 83
68 69 70 70 70 70 69 63 59 45 38 35 33 34 37 27 27 21 22 27 28 33 37 37 38 41 44 44 39 43 48 46 36 37 32 29 24 13 9 19 30 64 69 72 77
70 71 72 72 73 73 72 69 60 48 39 35 30 35 38 30 23 19 20 28 28 32 36 35 35 40 38 40 41 45 43 56 46 40 35 32 31 21 12 15 18 47 68 63 67
73 74 75 74 75 74 73 68 51 47 41 32 34 37 38 29 25 17 18 28 28 32 34 35 37 41 39 45 47 42 53 51 51 38 38 29 31 20 17 20 18 36 77 76 72
76 78 77 77 77 77 76 55 42 42 40 34 36 36 32 35 28 25 21 22 30 31 37 36 39 44 38 40 54 50 51 47 44 44 36 26 24 22 17 14 10 47 68 73 71
79 80 79 79 77 75 62 47 46 43 34 36 37 38 38 32 27 26 23 23 28 32 40 38 45 45 46 36 41 43 43 42 40 39 43 33 21 18 16 24 11 34 53 64 66
84 83 80 77 74 68 44 47 45 45 54 35 33 39 34 29 29 17 17 23 29 37 36 41 46 44 41 41 41 41 44 45 48 43 43 40 15 22 27 29 29 44 47 53 55
89 87 82 75 68 45 45 45 42 43 51 48 43 37 32 13 22 19 11 24 32 36 32 38 49 43 42 44 47 43 39 46 45 64 35 42 35 39 34 29 33 48 42 43 47
91 88 79 65 43 45 45 43 39 41 58 54 38 34 31 27 23 24 13 30 36 43 39 39 41 42 44 43 39 53 42 39 48 61 46 52 46 37 34 32 33 42 46 42 44
90 76 69 51 48 45 45 44 38 39 61 45 40 32 31 27 30 28 23 33 45 45 41 47 42 43 43 41 28 41 43 44 44 42 42 36 38 34 37 40 27 26 11 46 46
83 70 59 50 45 46 43 38 36 47 56 46 40 45 43 35 35 33 34 36 45 52 40 34 41 40 37 35 27 43 51 43 38 35 39 39 45 33 44 40 35 27 44 24 43
76 58 58 50 52 50 43 38 48 51 50 55 52 51 50 45 44 40 45 49 51 56 47 45 43 37 29 38 35 36 47 49 42 40 42 40 41 30 21 26 22 25 18 42 42
67 51 53 56 51 46 40 45 55 56 56 52 56 61 55 55 50 47 47 48 45 49 54 51 47 35 29 36 44 38 38 44 51 47 53 46 30 43 36 29 25 28 32 43 60
55 48 55 65 49 42 44 56 60 59 56 65 65 61 52 45 52 48 47 56 52 47 46 52 45 38 38 42 36 33 35 37 45 43 45 34 37 43 33 38 45 53 52 68 72
54 50 63 67 45 41 50 57 54 52 56 53 63 53 60 60 62 58 50 52 56 53 49 45 51 45 44 36 34 34 33 40 36 48 46 35 40 23 28 49 56 59 70 72 67
54 55 66 59 41 48 60 56 49 51 55 56 55 58 57 59 55 52 52 47 55 58 50 53 44 47 48 40 47 38 38 33 38 36 48 48 33 36 44 54 57 75 80 77 72
56 60 67 53 59 55 59 52 53 53 54 49 45 50 53 57 57 53 53 48 55 57 58 53 56 61 67 64 48 45 43 35 42 45 38 45 35 52 38 49 77 90 89 84 80
61 59 59 54 66 64 54 49 51 55 53 51 51 50 54 55 60 52 54 44 59 60 57 58 53 68 63 45 38 39 38 39 44 50 53 64 42 38 55 91 95 94 92 87 86
60 64 63 59 55 57 58 54 54 49 45 48 50 46 59 54 49 57 64 56 74 72 65 53 62 66 81 77 74 81 76 71 67 72 76 66 102 100 96 100 95 93 91 88 85
63 62 59 69 65 57 50 53 55 56 46 50 42 54 58 57 66 51 54 76 68 58 52 56 76 77 84 89 90 98 93 80 73 73 83 111 89 94 105 90 86 86 85 85 83
63 63 55 55 55 55 52 53 54 55 48 49 54 63 64 54 55 69 73 74 66 59 59 68 77 82 95 90 92 109 96 92 86 82 81 85 105 82 78 80 83 83 79 86 86
57 50 51 53 56 54 50 54 56 59 47 50 60 72 65 58 62 68 67 58 55 73 76 72 68 75 85 74 88 101 80 81 83 74 75 80 77 77 83 85 85 81 77 88 89
Wind_Direction
24 33 65 99 100 114 183 185 172 175 124 116 96 74 54 7 26 30 19 27 36 31 31 31 22 21 27 23 23 21 359 348 347 343 342 344 334 334 324 306 294 282 271 269 269
348 349 349 328 265 89 77 75 76 71 67 61 53 49 43 32 23 29 45 48 44 35 26 17 17 20 19 19 21 13 360 357 355 345 340 337 330 324 317 307 289 278 271 267 266
347 344 340 338 340 357 48 54 49 44 37 33 30 28 23 19 10 28 54 46 42 36 32 28 24 21 15 18 19 14 0 1 352 346 342 335 325 316 312 280 279 272 269 265 263
343 341 341 337 330 327 336 14 28 31 26 22 19 16 14 20 354 28 48 41 35 33 26 22 17 11 10 7 15 3 4 356 354 352 345 336 329 316 302 246 272 267 267 267 258
342 339 339 337 335 332 338 354 10 13 12 13 13 13 12 6 5 38 42 36 29 27 17 14 9 7 2 5 5 2 0 1 352 346 333 329 319 295 279 247 246 268 267 266 256
344 341 337 335 336 337 340 349 359 5 5 7 8 10 4 354 15 42 36 28 25 17 11 11 6 7 5 4 4 4 356 353 357 358 5 357 347 3 328 327 321 291 275 269 255
343 341 337 331 330 333 336 345 348 357 1 4 5 5 354 349 12 30 30 15 19 11 4 7 9 4 1 359 5 0 357 1 14 14 8 14 349 340 272 346 330 299 280 269 257
344 341 336 334 332 334 335 339 345 354 358 2 7 360 348 2 13 19 20 8 11 9 3 6 8 359 0 1 2 2 6 2 10 12 18 21 356 2 1 334 312 312 274 271 263
340 336 336 337 334 335 335 338 350 353 357 6 360 352 346 8 356 4 10 356 4 3 1 5 1 354 358 354 354 4 357 359 4 18 13 21 350 346 328 279 293 235 254 255 259
339 336 335 335 332 333 330 344 351 352 356 1 355 352 348 345 352 355 3 3 355 359 354 356 354 347 350 352 347 350 353 359 0 9 7 353 328 321 331 341 265 228 240 247 256
338 336 335 333 334 334 341 350 348 346 349 338 332 328 335 342 348 344 356 359 355 350 343 351 343 340 340 345 345 347 349 351 353 0 4 7 340 341 10 36 64 220 234 247 256
333 333 336 336 336 336 350 346 347 345 335 335 325 323 324 334 331 342 3 348 347 339 345 342 336 341 344 343 342 343 345 349 355 5 3 5 335 37 54 55 55 296 277 266 268
331 333 334 336 337 349 348 348 352 351 337 341 340 342 348 342 335 340 5 349 340 337 337 333 337 342 338 334 333 336 340 347 352 344 8 12 31 36 56 66 63 345 315 298 284
335 333 339 346 355 352 347 352 355 353 334 340 354 3 5 4 347 346 360 341 339 334 336 332 338 336 333 329 334 330 346 348 349 345 3 3 12 40 46 60 66 43 332 321 311
340 348 351 1 354 354 351 355 360 357 332 346 349 9 3 349 350 345 345 335 326 328 331 330 332 332 329 332 344 336 343 343 348 351 359 15 16 35 40 40 61 66 2 325 318
348 355 0 3 3 358 356 358 356 336 324 335 345 341 339 340 334 338 333 331 329 324 322 315 330 332 333 337 341 335 332 339 352 358 354 8 7 21 23 35 52 69 49 79 315
349 359 3 3 351 350 353 350 333 322 335 330 330 335 333 331 328 327 324 321 321 322 325 329 327 331 334 330 338 338 333 329 336 344 343 358 357 17 39 55 73 67 75 45 39
354 3 4 1 353 352 351 337 320 325 323 330 328 325 322 327 325 326 324 324 328 319 319 322 324 330 338 329 327 330 331 326 322 328 328 342 352 355 13 33 57 47 41 30 14
1 5 3 355 2 1 347 328 325 327 329 325 326 323 326 330 332 330 327 323 323 326 320 321 320 328 324 323 328 335 329 335 326 332 331 343 338 343 19 16 8 357 360 339 317
1 0 360 355 6 2 342 330 330 337 333 331 321 326 320 323 322 323 322 325 318 322 321 321 315 317 316 321 322 324 334 326 334 320 324 345 334 345 352 338 330 331 322 310 301
3 355 359 3 10 355 336 334 336 339 338 331 324 320 321 321 321 320 319 322 319 315 318 314 313 308 308 311 308 318 318 323 323 324 314 326 349 344 325 324 330 317 310 309 306
4 354 3 6 351 351 341 342 341 337 340 334 332 328 324 322 319 316 314 313 319 316 312 311 304 299 292 294 306 306 308 311 306 311 313 316 327 316 340 338 318 311 308 305 304
359 357 8 13 349 349 350 345 344 342 339 337 333 334 331 324 318 318 314 317 318 314 311 310 304 298 299 306 313 308 314 311 310 306 299 294 305 334 319 297 303 306 304 303 304
357 354 358 9 8 356 351 347 344 349 346 342 338 337 329 326 326 317 312 314 309 308 308 303 295 291 286 288 294 289 291 294 296 292 294 289 281 277 283 300 304 316 316 309 309
359 355 360 351 356 359 358 350 345 344 347 344 342 340 333 325 321 323 322 312 316 316 316 309 293 292 289 288 287 284 287 289 287 288 286 280 292 296 290 307 311 314 319 319 315
357 355 1 359 359 357 356 351 347 344 343 339 335 330 328 326 324 317 315 315 312 316 314 311 296 297 291 292 289 284 287 286 284 284 284 288 288 300 304 306 309 312 316 314 313
6 7 1 357 356 354 351 347 343 340 340 336 331 323 325 325 323 317 314 312 305 305 304 304 303 301 295 301 297 291 295 291 288 286 289 286 295 302 300 302 304 305 312 313 312